Вернуться в каталог

HAKUTO-R

АктивенНаукаHEO
NORAD 62717·PAYLOAD·🇯🇵 Japan

Запущен Jan 15, 2025 с Cape Canaveral Space Force Station

Loading…

Ближайшие Пролёты (ближайшие 24 часа)

TLE

УстаревшееSource: Space-Track

Эпоха: Jan 15, 2025, 07:37 UTC

1 62717U 25010B   25015.31796730 -.00038243  31373-4  00000-0 0  9992
2 62717  35.1700   0.1839 9650900 345.5700   0.7230  0.10673359    01

Отслеживайте HAKUTO-R в реальном времени с AllMySat

Download on the App Store